User: anonymous   Login
Location: Unspecified
(0.0000°N, 0.0000°E)
Time: 23:35:58
(UTC+00:00)
Language:

IGS 7A - Orbit

View from above orbital plane
View from above orbital plane
View from above satellite
View from above satellite

Ground track
Ground track

The orbit data is extracted from the following two-line orbital elements,

1 37954U 11075A   18134.92242215 0.00000000  00000-0  00000-0 0    09
2 37954  97.5059 211.7329 0003211 345.8811  14.1187 15.17614364    07
Epoch (UTC): 14 May 2018 22:08:17
Eccentricity: 0.0003211
inclination: 97.5059°
perigee height: 511 km
apogee height: 515 km
right ascension of ascending node: 211.7329°
argument of perigee: 345.8811°
revolutions per day: 15.17614364
mean anomaly at epoch: 14.1187°
orbit number at epoch: 0

The dashed part of the orbit path shows where the satellite is in the earth's shadow,  

DLR